Location: LDNL
(36.4545°S, 141.6685°E)
Time: 13:17:51
(UTC+10:00)

Tiangong - Visible Passes

Search period start: 25 May 2024 00:00
Search period end: 04 June 2024 00:00
Orbit: 370 x 374 km, 41.5° (Epoch: 24 May)

Date Brightness Start Highest point End Pass type
(mag) Time Alt. Az. Time Alt. Az. Time Alt. Az.
25 May -1.3 17:57:30 10° WSW 18:00:28 35° S 18:03:24 10° ESE visible
25 May 0.1 19:34:02 10° WSW 19:35:30 25° WSW 19:35:30 25° WSW visible
26 May -2.2 18:30:14 10° WSW 18:33:23 64° SSE 18:35:03 24° E visible
27 May -1.2 19:02:57 10° WSW 19:05:59 44° NNW 19:06:40 37° N visible
28 May -2.1 17:58:53 10° WSW 18:02:02 87° NNW 18:05:09 10° ENE visible
28 May 0.8 19:36:29 10° WNW 19:38:13 14° NW 19:38:24 14° NNW visible
29 May -0.1 18:31:34 10° W 18:34:18 27° NNW 18:37:01 10° NNE visible
31 May 0.8 17:59:58 10° W 18:02:10 18° NW 18:04:20 10° N visible
